HELLAS-SAT 4 & SGS-1

Last updated on Sat Aug 22 2026 00:03:00 GMT+0000 (Coordinated Universal Time)

1 44034U 19007A 26233.48997458 .00000150 00000+0 00000+0 0 9996 2 44034 0.0679 125.8104 0005642 22.6101 36.7918 1.00271759 28038
UTC large
Height (km)
Speed (km/s)
/
Latitude / Longitude
Inclination (degrees)
Orbital Period (minutes)
Azimuth
Elevation
Range (km)
Doppler Factor

Next 0 passes for location: London (51.5072 / 0.1276)

No passes found over London.
HELLAS-SAT 4 & SGS-1